Hourly Data Report for March 05, 2020

MIRAMICHI RCS
NEW BRUNSWICK
Current Station Operator: ECCC - MSC

47°00'34.000" N
65°27'54.000" W
33.00 m
8100989
71744
ACQ

Download Data

Hourly Data (March 2020)
Hourly Data Report for March 5, 2020
TIME
LST
Temp Definition
°C
Dew Point Definition
°C
Rel Hum Definition
%
Precip. Amount Definition
mm

Wind Dir Definition
10's deg

Wind Spd Definition
km/h
Visibility Definition
km
Stn Press Definition
kPa
Hmdx Definition


Wind Chill Definition


Weather Definition


00:00 -0.7 -1.6 93 LegendMM 27 23   98.48   -7 LegendNANA
01:00 -0.8 -1.9 92 LegendMM 25 19   98.55   -6 LegendNANA
02:00 -0.8 -1.8 93 LegendMM 25 21   98.64   -6 LegendNANA
03:00 -0.8 -1.7 94 LegendMM 26 17   98.72   -6 LegendNANA
04:00 -1.2 -2.2 93 LegendMM 27 19   98.83   -7 LegendNANA
05:00 -1.5 -2.6 92 LegendMM 27 19   98.94   -7 LegendNANA
06:00 -1.4 -3.6 85 LegendMM 28 21   99.03   -7 LegendNANA
07:00 -1.7 -5.0 79 LegendMM 28 23   99.16   -8 LegendNANA
08:00 -1.8 -5.2 78 LegendMM 28 24   99.29   -8 LegendNANA
09:00 -1.8 -5.5 76 LegendMM 29 26   99.40   -8 LegendNANA
10:00 -1.5 -5.5 74 LegendMM 29 29   99.51   -8 LegendNANA
11:00 -0.8 -5.4 71 LegendMM 30 22   99.60   -7 LegendNANA
12:00 -0.1 -5.4 67 LegendMM 30 22   99.72   -6 LegendNANA
13:00 0.3 -5.6 65 LegendMM 30 24   99.81     LegendNANA
14:00 0.9 -5.4 63 LegendMM 30 24   99.92     LegendNANA
15:00 1.4 -5.8 59 LegendMM 30 28   100.04     LegendNANA
16:00 0.5 -6.6 59 LegendMM 30 27   100.15     LegendNANA
17:00 0.0 -6.8 60 LegendMM 29 28   100.31   -6 LegendNANA
18:00 -0.9 -7.4 61 LegendMM 30 23   100.46   -7 LegendNANA
19:00 -1.4 -7.9 61 LegendMM 30 19   100.60   -7 LegendNANA
20:00 -2.1 -8.1 63 LegendMM 29 17   100.71   -7 LegendNANA
21:00 -2.3 -8.7 62 LegendMM 29 18   100.81   -8 LegendNANA
22:00 -2.7 -9.2 61 LegendMM 30 15   100.88   -8 LegendNANA
23:00 -3.3 -9.6 62 LegendMM 29 13   100.95   -8 LegendNANA

Notes on Data Quality.

Legend

  • E = Estimated
  • M = Missing
  • NA = Not Available*
  • [empty] = Indicates an unobserved value
Date modified: